owner,sensor,date,latitude,longitude,vertical_datum,sea_water_temperature,qcFlag
Chevron,ioos:station:wmo:42888:1,2021-06-01T00:07:00Z,28.9495,-88.2499,12.5,26.3,11111222
Chevron,ioos:station:wmo:42888:1,2021-06-01T00:17:00Z,28.9495,-88.2499,12.4,26.3,11111222
Chevron,ioos:station:wmo:42888:1,2021-06-01T00:27:00Z,28.9495,-88.2499,12.7,26.3,11111222
Chevron,ioos:station:wmo:42888:1,2021-06-01T00:37:00Z,28.9495,-88.2499,12.7,26.3,11111222
Chevron,ioos:station:wmo:42888:1,2021-06-01T00:47:00Z,28.9495,-88.2499,12.6,26.3,11111222
Chevron,ioos:station:wmo:42888:1,2021-06-01T00:57:00Z,28.9495,-88.2499,12.7,26.3,11111222
Chevron,ioos:station:wmo:42888:1,2021-06-01T01:07:00Z,28.9495,-88.2499,12.7,26.3,11111222
Chevron,ioos:station:wmo:42888:1,2021-06-01T01:17:00Z,28.9495,-88.2498,12.4,26.3,11111222
Chevron,ioos:station:wmo:42888:1,2021-06-01T01:27:00Z,28.9495,-88.2499,12.4,26.3,11111222
Chevron,ioos:station:wmo:42888:1,2021-06-01T01:37:00Z,28.9495,-88.2499,12.4,26.2,11111222
Chevron,ioos:station:wmo:42888:1,2021-06-01T01:47:00Z,28.9495,-88.2499,12.6,26.2,11111222
Chevron,ioos:station:wmo:42888:1,2021-06-01T01:57:00Z,28.9495,-88.2499,12.8,26.2,11111222
Chevron,ioos:station:wmo:42888:1,2021-06-01T02:07:00Z,28.9495,-88.2498,12.5,26.2,11111222
Chevron,ioos:station:wmo:42888:1,2021-06-01T02:17:00Z,28.9495,-88.2499,12.6,26.2,11111222
Chevron,ioos:station:wmo:42888:1,2021-06-01T02:27:00Z,28.9495,-88.2499,12.5,26.2,11111222
Chevron,ioos:station:wmo:42888:1,2021-06-01T02:37:00Z,28.9495,-88.2499,12.7,26.2,11111222
Chevron,ioos:station:wmo:42888:1,2021-06-01T02:47:00Z,28.9495,-88.2499,12.6,26.2,11111222
Chevron,ioos:station:wmo:42888:1,2021-06-01T02:57:00Z,28.9495,-88.2499,12.8,26.2,11111222
Chevron,ioos:station:wmo:42888:1,2021-06-01T03:07:00Z,28.9495,-88.2499,12.6,26.2,11111222
Chevron,ioos:station:wmo:42888:1,2021-06-01T03:17:00Z,28.9496,-88.2498,12.5,26.1,11111222
Chevron,ioos:station:wmo:42888:1,2021-06-01T03:27:00Z,28.9495,-88.2498,12.3,26.1,11111222
Chevron,ioos:station:wmo:42888:1,2021-06-01T03:37:00Z,28.9495,-88.2499,12.4,26.1,11111222
Chevron,ioos:station:wmo:42888:1,2021-06-01T03:47:00Z,28.9495,-88.2499,12.6,26.1,11111222
Chevron,ioos:station:wmo:42888:1,2021-06-01T03:57:00Z,28.9495,-88.2499,12.7,26.1,11111222
Chevron,ioos:station:wmo:42888:1,2021-06-01T04:07:00Z,28.9495,-88.2499,12.7,26.1,11111222
Chevron,ioos:station:wmo:42888:1,2021-06-01T04:17:00Z,28.9495,-88.2499,12.8,26.1,11111222
Chevron,ioos:station:wmo:42888:1,2021-06-01T04:27:00Z,28.9495,-88.2499,12.6,26.1,11111222
Chevron,ioos:station:wmo:42888:1,2021-06-01T04:37:00Z,28.9495,-88.2498,12.8,26.1,11111222
Chevron,ioos:station:wmo:42888:1,2021-06-01T04:47:00Z,28.9494,-88.2498,12.7,26.1,11111222
Chevron,ioos:station:wmo:42888:1,2021-06-01T04:57:00Z,28.9494,-88.2498,12.7,26.1,11111222
Chevron,ioos:station:wmo:42888:1,2021-06-01T05:07:00Z,28.9494,-88.2498,12.5,26.1,11111222
Chevron,ioos:station:wmo:42888:1,2021-06-01T05:17:00Z,28.9495,-88.2499,12.7,26.1,11111222
Chevron,ioos:station:wmo:42888:1,2021-06-01T05:27:00Z,28.9495,-88.2498,12.6,26.1,11111222
Chevron,ioos:station:wmo:42888:1,2021-06-01T05:37:00Z,28.9495,-88.2499,12.8,26.1,11111222
Chevron,ioos:station:wmo:42888:1,2021-06-01T05:47:00Z,28.9495,-88.2499,13.1,26.1,11111222
Chevron,ioos:station:wmo:42888:1,2021-06-01T05:57:00Z,28.9495,-88.2499,12.8,26.1,11111222
Chevron,ioos:station:wmo:42888:1,2021-06-01T06:07:00Z,28.9496,-88.2499,12.6,26.1,11111222
Chevron,ioos:station:wmo:42888:1,2021-06-01T06:17:00Z,28.9495,-88.2499,12.7,26.1,11111222
Chevron,ioos:station:wmo:42888:1,2021-06-01T06:27:00Z,28.9495,-88.2499,12.5,26.1,11111222
Chevron,ioos:station:wmo:42888:1,2021-06-01T06:37:00Z,28.9495,-88.2499,13.0,26.1,11111222
Chevron,ioos:station:wmo:42888:1,2021-06-01T06:47:00Z,28.9495,-88.2499,13.0,26.1,11111222
Chevron,ioos:station:wmo:42888:1,2021-06-01T06:57:00Z,28.9495,-88.2499,12.8,26.1,11111222
Chevron,ioos:station:wmo:42888:1,2021-06-01T07:07:00Z,28.9495,-88.2499,12.9,26.1,11111222
Chevron,ioos:station:wmo:42888:1,2021-06-01T07:17:00Z,28.9495,-88.2499,12.9,26.0,11111222
Chevron,ioos:station:wmo:42888:1,2021-06-01T07:27:00Z,28.9495,-88.2499,12.8,26.0,11111222
Chevron,ioos:station:wmo:42888:1,2021-06-01T07:37:00Z,28.9495,-88.2499,13.0,26.0,11111222
Chevron,ioos:station:wmo:42888:1,2021-06-01T07:47:00Z,28.9496,-88.2499,12.9,25.9,11111222
Chevron,ioos:station:wmo:42888:1,2021-06-01T07:57:00Z,28.9495,-88.2499,13.0,25.8,11111222
Chevron,ioos:station:wmo:42888:1,2021-06-01T08:07:00Z,28.9495,-88.2499,13.1,25.8,11111222
Chevron,ioos:station:wmo:42888:1,2021-06-01T08:17:00Z,28.9495,-88.2499,13.1,25.7,11111222
Chevron,ioos:station:wmo:42888:1,2021-06-01T08:27:00Z,28.9495,-88.2499,12.9,25.8,11111222
Chevron,ioos:station:wmo:42888:1,2021-06-01T08:37:00Z,28.9495,-88.2499,13.0,25.8,11111222
Chevron,ioos:station:wmo:42888:1,2021-06-01T08:47:00Z,28.9495,-88.2499,13.1,25.8,11111222
Chevron,ioos:station:wmo:42888:1,2021-06-01T08:57:00Z,28.9495,-88.2499,13.0,25.7,11111222
Chevron,ioos:station:wmo:42888:1,2021-06-01T09:07:00Z,28.9495,-88.2499,12.9,25.7,11111222
Chevron,ioos:station:wmo:42888:1,2021-06-01T09:17:00Z,28.9495,-88.2499,12.8,25.8,11111222
Chevron,ioos:station:wmo:42888:1,2021-06-01T09:27:00Z,28.9496,-88.2499,12.9,25.9,11111222
Chevron,ioos:station:wmo:42888:1,2021-06-01T09:37:00Z,28.9495,-88.2499,12.7,25.9,11111222
Chevron,ioos:station:wmo:42888:1,2021-06-01T09:47:00Z,28.9495,-88.2498,13.0,25.8,11111222
Chevron,ioos:station:wmo:42888:1,2021-06-01T09:57:00Z,28.9495,-88.2499,12.9,25.8,11111222
Chevron,ioos:station:wmo:42888:1,2021-06-01T10:07:00Z,28.9494,-88.2498,12.7,25.9,11111222
Chevron,ioos:station:wmo:42888:1,2021-06-01T10:17:00Z,28.9495,-88.2499,12.8,25.9,11111222
Chevron,ioos:station:wmo:42888:1,2021-06-01T10:27:00Z,28.9495,-88.2499,12.9,25.9,11111222
Chevron,ioos:station:wmo:42888:1,2021-06-01T10:37:00Z,28.9495,-88.2499,13.0,25.9,11111222
Chevron,ioos:station:wmo:42888:1,2021-06-01T10:47:00Z,28.9495,-88.2499,12.9,25.9,11111222
Chevron,ioos:station:wmo:42888:1,2021-06-01T10:57:00Z,28.9495,-88.2498,13.1,25.9,11111222
Chevron,ioos:station:wmo:42888:1,2021-06-01T11:07:00Z,28.9495,-88.2498,13.2,25.8,11111222
Chevron,ioos:station:wmo:42888:1,2021-06-01T11:17:00Z,28.9495,-88.2499,12.9,25.9,11111222
Chevron,ioos:station:wmo:42888:1,2021-06-01T11:27:00Z,28.9495,-88.2499,13.1,25.9,11111222
Chevron,ioos:station:wmo:42888:1,2021-06-01T11:37:00Z,28.9495,-88.2499,12.9,26.0,11111222
Chevron,ioos:station:wmo:42888:1,2021-06-01T11:47:00Z,28.9496,-88.2499,13.0,26.0,11111222
Chevron,ioos:station:wmo:42888:1,2021-06-01T11:57:00Z,28.9495,-88.2499,13.1,25.9,11111222
Chevron,ioos:station:wmo:42888:1,2021-06-01T12:07:00Z,28.9495,-88.2499,12.9,26.0,11111222
Chevron,ioos:station:wmo:42888:1,2021-06-01T12:17:00Z,28.9495,-88.2499,12.8,26.0,11111222
Chevron,ioos:station:wmo:42888:1,2021-06-01T12:27:00Z,28.9495,-88.2499,12.9,26.0,11111222
Chevron,ioos:station:wmo:42888:1,2021-06-01T12:37:00Z,28.9495,-88.2499,13.2,26.0,11111222
Chevron,ioos:station:wmo:42888:1,2021-06-01T12:47:00Z,28.9495,-88.2499,13.0,26.0,11111222
Chevron,ioos:station:wmo:42888:1,2021-06-01T12:57:00Z,28.9495,-88.2499,13.0,26.0,11111222
Chevron,ioos:station:wmo:42888:1,2021-06-01T13:07:00Z,28.9495,-88.2499,13.0,25.9,11111222
Chevron,ioos:station:wmo:42888:1,2021-06-01T13:17:00Z,28.9495,-88.2499,12.8,25.9,11111222
Chevron,ioos:station:wmo:42888:1,2021-06-01T13:27:00Z,28.9495,-88.2499,13.1,25.9,11111222
Chevron,ioos:station:wmo:42888:1,2021-06-01T13:37:00Z,28.9495,-88.2499,12.8,25.9,11111222
Chevron,ioos:station:wmo:42888:1,2021-06-01T13:47:00Z,28.9495,-88.2499,13.1,25.9,11111222
Chevron,ioos:station:wmo:42888:1,2021-06-01T13:57:00Z,28.9495,-88.2498,13.2,25.9,11111222
Chevron,ioos:station:wmo:42888:1,2021-06-01T14:07:00Z,28.9495,-88.2499,13.2,25.9,11111222
Chevron,ioos:station:wmo:42888:1,2021-06-01T14:17:00Z,28.9495,-88.2499,12.8,25.9,11111222
Chevron,ioos:station:wmo:42888:1,2021-06-01T14:27:00Z,28.9495,-88.2499,12.7,26.0,11111222
Chevron,ioos:station:wmo:42888:1,2021-06-01T14:37:00Z,28.9495,-88.2499,12.6,26.1,11111222
Chevron,ioos:station:wmo:42888:1,2021-06-01T14:47:00Z,28.9495,-88.2499,13.0,26.1,11111222
Chevron,ioos:station:wmo:42888:1,2021-06-01T14:57:00Z,28.9495,-88.2499,12.8,26.1,11111222
Chevron,ioos:station:wmo:42888:1,2021-06-01T15:07:00Z,28.9495,-88.2498,12.9,26.1,11111222
Chevron,ioos:station:wmo:42888:1,2021-06-01T15:17:00Z,28.9495,-88.2499,12.6,26.0,11111222
Chevron,ioos:station:wmo:42888:1,2021-06-01T15:27:00Z,28.9495,-88.2499,13.0,26.1,11111222
Chevron,ioos:station:wmo:42888:1,2021-06-01T15:37:00Z,28.9495,-88.2499,13.2,26.1,11111222
Chevron,ioos:station:wmo:42888:1,2021-06-01T15:47:00Z,28.9496,-88.2499,12.9,26.1,11111222
Chevron,ioos:station:wmo:42888:1,2021-06-01T15:57:00Z,28.9495,-88.2499,12.8,26.1,11111222
Chevron,ioos:station:wmo:42888:1,2021-06-01T16:07:00Z,28.9495,-88.2499,12.8,26.1,11111222
Chevron,ioos:station:wmo:42888:1,2021-06-01T16:17:00Z,28.9495,-88.2499,13.2,26.1,11111222
Chevron,ioos:station:wmo:42888:1,2021-06-01T16:27:00Z,28.9495,-88.2499,13.0,26.1,11111222
Chevron,ioos:station:wmo:42888:1,2021-06-01T16:37:00Z,28.9495,-88.2499,12.9,26.1,11111222
Chevron,ioos:station:wmo:42888:1,2021-06-01T16:47:00Z,28.9495,-88.2499,12.9,26.1,11111222
Chevron,ioos:station:wmo:42888:1,2021-06-01T16:57:00Z,28.9495,-88.2499,12.9,26.2,11111222
Chevron,ioos:station:wmo:42888:1,2021-06-01T17:07:00Z,28.9495,-88.2499,12.9,26.2,11111222
Chevron,ioos:station:wmo:42888:1,2021-06-01T17:17:00Z,28.9495,-88.2498,12.7,26.2,11111222
Chevron,ioos:station:wmo:42888:1,2021-06-01T17:27:00Z,28.9495,-88.2498,13.0,26.3,11111222
Chevron,ioos:station:wmo:42888:1,2021-06-01T17:37:00Z,28.9495,-88.2498,13.1,26.3,11111222
Chevron,ioos:station:wmo:42888:1,2021-06-01T17:47:00Z,28.9495,-88.2499,13.0,26.3,11111222
Chevron,ioos:station:wmo:42888:1,2021-06-01T17:57:00Z,28.9495,-88.2499,13.0,26.3,11111222
Chevron,ioos:station:wmo:42888:1,2021-06-01T18:07:00Z,28.9495,-88.2498,13.2,26.3,11111222
Chevron,ioos:station:wmo:42888:1,2021-06-01T18:17:00Z,28.9495,-88.2499,13.2,26.4,11111222
Chevron,ioos:station:wmo:42888:1,2021-06-01T18:27:00Z,28.9495,-88.2499,13.2,26.4,11111222
Chevron,ioos:station:wmo:42888:1,2021-06-01T18:37:00Z,28.9495,-88.2499,12.7,26.4,11111222
Chevron,ioos:station:wmo:42888:1,2021-06-01T18:47:00Z,28.9495,-88.2498,13.1,26.4,11111222
Chevron,ioos:station:wmo:42888:1,2021-06-01T18:57:00Z,28.9495,-88.2499,12.9,26.4,11111222
Chevron,ioos:station:wmo:42888:1,2021-06-01T19:07:00Z,28.9495,-88.2499,13.1,26.4,11111222
Chevron,ioos:station:wmo:42888:1,2021-06-01T19:17:00Z,28.9495,-88.2499,13.0,26.4,11111222
Chevron,ioos:station:wmo:42888:1,2021-06-01T19:27:00Z,28.9495,-88.2499,13.0,26.4,11111222
Chevron,ioos:station:wmo:42888:1,2021-06-01T19:37:00Z,28.9495,-88.2499,13.1,26.4,11111222
Chevron,ioos:station:wmo:42888:1,2021-06-01T19:47:00Z,28.9494,-88.2499,13.0,26.4,11111222
Chevron,ioos:station:wmo:42888:1,2021-06-01T19:57:00Z,28.9495,-88.2499,12.7,26.4,11111222
Chevron,ioos:station:wmo:42888:1,2021-06-01T20:07:00Z,28.9495,-88.2498,12.9,26.5,11111222
Chevron,ioos:station:wmo:42888:1,2021-06-01T20:17:00Z,28.9495,-88.2499,12.9,26.5,11111222
Chevron,ioos:station:wmo:42888:1,2021-06-01T20:27:00Z,28.9495,-88.2499,12.6,26.4,11111222
Chevron,ioos:station:wmo:42888:1,2021-06-01T20:37:00Z,28.9495,-88.2499,12.7,26.4,11111222
Chevron,ioos:station:wmo:42888:1,2021-06-01T20:47:00Z,28.9495,-88.2499,12.6,26.4,11111222
Chevron,ioos:station:wmo:42888:1,2021-06-01T20:57:00Z,28.9495,-88.2499,12.8,26.4,11111222
Chevron,ioos:station:wmo:42888:1,2021-06-01T21:07:00Z,28.9499,-88.2498,12.9,26.4,11111222
Chevron,ioos:station:wmo:42888:1,2021-06-01T21:17:00Z,28.9504,-88.2501,12.9,26.4,11111222
Chevron,ioos:station:wmo:42888:1,2021-06-01T21:27:00Z,28.9511,-88.2501,12.7,26.4,11111222
Chevron,ioos:station:wmo:42888:1,2021-06-01T21:37:00Z,28.9516,-88.2501,13.1,26.4,11111222
Chevron,ioos:station:wmo:42888:1,2021-06-01T21:47:00Z,28.9522,-88.2501,12.7,26.4,11111222
Chevron,ioos:station:wmo:42888:1,2021-06-01T21:57:00Z,28.9522,-88.2501,13.1,26.4,11111222
Chevron,ioos:station:wmo:42888:1,2021-06-01T22:07:00Z,28.9522,-88.2501,13.1,26.4,11111222
Chevron,ioos:station:wmo:42888:1,2021-06-01T22:17:00Z,28.9522,-88.2501,13.0,26.4,11111222
Chevron,ioos:station:wmo:42888:1,2021-06-01T22:27:00Z,28.9523,-88.2501,13.2,26.4,11111222
Chevron,ioos:station:wmo:42888:1,2021-06-01T22:37:00Z,28.9523,-88.2501,13.1,26.4,11111222
Chevron,ioos:station:wmo:42888:1,2021-06-01T22:47:00Z,28.9523,-88.2501,13.0,26.4,11111222
Chevron,ioos:station:wmo:42888:1,2021-06-01T22:57:00Z,28.9523,-88.2501,13.3,26.4,11111222
Chevron,ioos:station:wmo:42888:1,2021-06-01T23:07:00Z,28.9523,-88.2501,13.2,26.5,11111222
Chevron,ioos:station:wmo:42888:1,2021-06-01T23:17:00Z,28.9523,-88.2500,13.1,26.5,11111222
Chevron,ioos:station:wmo:42888:1,2021-06-01T23:27:00Z,28.9523,-88.2501,13.1,26.5,11111222
Chevron,ioos:station:wmo:42888:1,2021-06-01T23:37:00Z,28.9523,-88.2501,12.9,26.5,11111222
Chevron,ioos:station:wmo:42888:1,2021-06-01T23:47:00Z,28.9523,-88.2501,12.8,26.4,11111222
Chevron,ioos:station:wmo:42888:1,2021-06-01T23:57:00Z,28.9523,-88.2500,12.9,26.4,11111222
Chevron,ioos:station:wmo:42888:1,2021-06-02T00:07:00Z,28.9523,-88.2501,12.9,26.4,11111222
Chevron,ioos:station:wmo:42888:1,2021-06-02T00:17:00Z,28.9523,-88.2501,12.8,26.4,11111222
Chevron,ioos:station:wmo:42888:1,2021-06-02T00:27:00Z,28.9523,-88.2501,12.7,26.4,11111222
Chevron,ioos:station:wmo:42888:1,2021-06-02T00:37:00Z,28.9523,-88.2501,13.0,26.4,11111222
Chevron,ioos:station:wmo:42888:1,2021-06-02T00:47:00Z,28.9523,-88.2501,12.9,26.4,11111222
Chevron,ioos:station:wmo:42888:1,2021-06-02T00:57:00Z,28.9523,-88.2501,13.0,26.4,11111222
Chevron,ioos:station:wmo:42888:1,2021-06-02T01:07:00Z,28.9523,-88.2501,12.7,26.4,11111222
Chevron,ioos:station:wmo:42888:1,2021-06-02T01:17:00Z,28.9522,-88.2501,12.9,26.4,11111222
Chevron,ioos:station:wmo:42888:1,2021-06-02T01:27:00Z,28.9523,-88.2501,12.9,26.4,11111222
Chevron,ioos:station:wmo:42888:1,2021-06-02T01:37:00Z,28.9523,-88.2501,12.9,26.4,11111222
Chevron,ioos:station:wmo:42888:1,2021-06-02T01:47:00Z,28.9523,-88.2501,13.0,26.4,11111222
Chevron,ioos:station:wmo:42888:1,2021-06-02T01:57:00Z,28.9523,-88.2501,12.8,26.4,11111222
Chevron,ioos:station:wmo:42888:1,2021-06-02T02:07:00Z,28.9522,-88.2501,12.9,26.4,11111222
Chevron,ioos:station:wmo:42888:1,2021-06-02T02:17:00Z,28.9523,-88.2501,13.0,26.4,11111222
Chevron,ioos:station:wmo:42888:1,2021-06-02T02:27:00Z,28.9523,-88.2501,12.8,26.4,11111222
Chevron,ioos:station:wmo:42888:1,2021-06-02T02:37:00Z,28.9523,-88.2501,12.7,26.4,11111222
Chevron,ioos:station:wmo:42888:1,2021-06-02T02:47:00Z,28.9523,-88.2501,12.8,26.3,11111222
Chevron,ioos:station:wmo:42888:1,2021-06-02T02:57:00Z,28.9522,-88.2501,13.1,26.4,11111222
Chevron,ioos:station:wmo:42888:1,2021-06-02T03:07:00Z,28.9523,-88.2501,12.8,26.4,11111222
Chevron,ioos:station:wmo:42888:1,2021-06-02T03:17:00Z,28.9523,-88.2501,12.8,26.3,11111222
Chevron,ioos:station:wmo:42888:1,2021-06-02T03:27:00Z,28.9523,-88.2501,13.2,26.4,11111222
Chevron,ioos:station:wmo:42888:1,2021-06-02T03:37:00Z,28.9523,-88.2502,12.8,26.3,11111222
Chevron,ioos:station:wmo:42888:1,2021-06-02T03:47:00Z,28.9523,-88.2501,13.1,26.3,11111222
Chevron,ioos:station:wmo:42888:1,2021-06-02T03:57:00Z,28.9523,-88.2501,12.7,26.4,11111222
Chevron,ioos:station:wmo:42888:1,2021-06-02T04:07:00Z,28.9523,-88.2500,13.0,26.4,11111222
Chevron,ioos:station:wmo:42888:1,2021-06-02T04:17:00Z,28.9523,-88.2501,12.8,26.3,11111222
Chevron,ioos:station:wmo:42888:1,2021-06-02T04:27:00Z,28.9523,-88.2501,12.8,26.3,11111222
Chevron,ioos:station:wmo:42888:1,2021-06-02T04:37:00Z,28.9524,-88.2501,12.9,26.3,11111222
Chevron,ioos:station:wmo:42888:1,2021-06-02T04:47:00Z,28.9523,-88.2501,13.1,26.3,11111222
Chevron,ioos:station:wmo:42888:1,2021-06-02T04:57:00Z,28.9523,-88.2501,13.0,26.3,11111222
Chevron,ioos:station:wmo:42888:1,2021-06-02T05:07:00Z,28.9523,-88.2501,12.8,26.3,11111222
Chevron,ioos:station:wmo:42888:1,2021-06-02T05:17:00Z,28.9523,-88.2501,12.9,26.3,11111222
Chevron,ioos:station:wmo:42888:1,2021-06-02T05:27:00Z,28.9523,-88.2501,13.0,26.3,11111222
Chevron,ioos:station:wmo:42888:1,2021-06-02T05:37:00Z,28.9522,-88.2501,12.9,26.3,11111222
Chevron,ioos:station:wmo:42888:1,2021-06-02T05:47:00Z,28.9523,-88.2501,12.9,26.3,11111222
Chevron,ioos:station:wmo:42888:1,2021-06-02T05:57:00Z,28.9523,-88.2501,12.9,26.3,11111222
Chevron,ioos:station:wmo:42888:1,2021-06-02T06:07:00Z,28.9523,-88.2501,12.9,26.3,11111222
Chevron,ioos:station:wmo:42888:1,2021-06-02T06:17:00Z,28.9523,-88.2501,12.9,26.3,11111222
Chevron,ioos:station:wmo:42888:1,2021-06-02T06:27:00Z,28.9523,-88.2501,12.8,26.3,11111222
Chevron,ioos:station:wmo:42888:1,2021-06-02T06:37:00Z,28.9523,-88.2500,12.9,26.3,11111222
Chevron,ioos:station:wmo:42888:1,2021-06-02T06:47:00Z,28.9523,-88.2501,13.1,26.3,11111222
Chevron,ioos:station:wmo:42888:1,2021-06-02T06:57:00Z,28.9523,-88.2501,13.1,26.3,11111222
Chevron,ioos:station:wmo:42888:1,2021-06-02T07:07:00Z,28.9523,-88.2501,13.1,26.3,11111222
Chevron,ioos:station:wmo:42888:1,2021-06-02T07:17:00Z,28.9523,-88.2501,13.0,26.3,11111222
Chevron,ioos:station:wmo:42888:1,2021-06-02T07:27:00Z,28.9523,-88.2501,12.9,26.3,11111222
Chevron,ioos:station:wmo:42888:1,2021-06-02T07:37:00Z,28.9523,-88.2501,12.7,26.3,11111222
Chevron,ioos:station:wmo:42888:1,2021-06-02T07:47:00Z,28.9523,-88.2501,13.1,26.3,11111222
Chevron,ioos:station:wmo:42888:1,2021-06-02T07:57:00Z,28.9523,-88.2501,13.1,26.3,11111222
Chevron,ioos:station:wmo:42888:1,2021-06-02T08:07:00Z,28.9523,-88.2501,13.1,26.3,11111222
Chevron,ioos:station:wmo:42888:1,2021-06-02T08:17:00Z,28.9522,-88.2501,13.0,26.3,11111222
Chevron,ioos:station:wmo:42888:1,2021-06-02T08:27:00Z,28.9523,-88.2501,12.9,26.3,11111222
Chevron,ioos:station:wmo:42888:1,2021-06-02T08:37:00Z,28.9523,-88.2501,13.0,26.3,11111222
Chevron,ioos:station:wmo:42888:1,2021-06-02T08:47:00Z,28.9523,-88.2501,12.9,26.3,11111222
Chevron,ioos:station:wmo:42888:1,2021-06-02T08:57:00Z,28.9523,-88.2501,13.2,26.3,11111222
Chevron,ioos:station:wmo:42888:1,2021-06-02T09:07:00Z,28.9523,-88.2500,12.8,26.3,11111222
Chevron,ioos:station:wmo:42888:1,2021-06-02T09:17:00Z,28.9522,-88.2501,12.8,26.3,11111222
Chevron,ioos:station:wmo:42888:1,2021-06-02T09:27:00Z,28.9523,-88.2501,13.1,26.3,11111222
Chevron,ioos:station:wmo:42888:1,2021-06-02T09:37:00Z,28.9524,-88.2511,13.0,26.3,11111222
Chevron,ioos:station:wmo:42888:1,2021-06-02T09:47:00Z,28.9514,-88.2514,13.4,26.3,11111222
Chevron,ioos:station:wmo:42888:1,2021-06-02T09:57:00Z,28.9525,-88.2505,13.0,26.2,11111222
Chevron,ioos:station:wmo:42888:1,2021-06-02T10:07:00Z,28.9513,-88.2500,12.9,26.2,11111222
Chevron,ioos:station:wmo:42888:1,2021-06-02T10:17:00Z,28.9510,-88.2507,13.2,26.2,11111222
Chevron,ioos:station:wmo:42888:1,2021-06-02T10:27:00Z,28.9510,-88.2503,12.8,26.3,11111222
Chevron,ioos:station:wmo:42888:1,2021-06-02T10:37:00Z,28.9511,-88.2503,13.1,26.2,11111222
Chevron,ioos:station:wmo:42888:1,2021-06-02T10:47:00Z,28.9510,-88.2504,13.0,26.2,11111222
Chevron,ioos:station:wmo:42888:1,2021-06-02T10:57:00Z,28.9511,-88.2503,13.1,26.2,11111222
Chevron,ioos:station:wmo:42888:1,2021-06-02T11:07:00Z,28.9510,-88.2503,12.7,26.2,11111222
Chevron,ioos:station:wmo:42888:1,2021-06-02T11:17:00Z,28.9511,-88.2503,12.9,26.2,11111222
Chevron,ioos:station:wmo:42888:1,2021-06-02T11:27:00Z,28.9511,-88.2504,12.7,26.3,11111222
Chevron,ioos:station:wmo:42888:1,2021-06-02T11:37:00Z,28.9511,-88.2503,13.0,26.2,11111222
Chevron,ioos:station:wmo:42888:1,2021-06-02T11:47:00Z,28.9510,-88.2503,13.1,26.2,11111222
Chevron,ioos:station:wmo:42888:1,2021-06-02T11:57:00Z,28.9511,-88.2503,12.9,26.3,11111222
Chevron,ioos:station:wmo:42888:1,2021-06-02T12:07:00Z,28.9511,-88.2503,13.1,26.3,11111222
Chevron,ioos:station:wmo:42888:1,2021-06-02T12:17:00Z,28.9510,-88.2503,13.2,26.3,11111222
Chevron,ioos:station:wmo:42888:1,2021-06-02T12:27:00Z,28.9511,-88.2503,13.1,26.3,11111222
Chevron,ioos:station:wmo:42888:1,2021-06-02T12:37:00Z,28.9511,-88.2503,13.0,26.3,11111222
Chevron,ioos:station:wmo:42888:1,2021-06-02T12:47:00Z,28.9510,-88.2503,13.2,26.3,11111222
Chevron,ioos:station:wmo:42888:1,2021-06-02T12:57:00Z,28.9511,-88.2503,13.0,26.3,11111222
Chevron,ioos:station:wmo:42888:1,2021-06-02T13:07:00Z,28.9510,-88.2503,13.2,26.2,11111222
Chevron,ioos:station:wmo:42888:1,2021-06-02T13:17:00Z,28.9510,-88.2503,13.0,26.3,11111222
Chevron,ioos:station:wmo:42888:1,2021-06-02T13:27:00Z,28.9510,-88.2504,13.1,26.2,11111222
Chevron,ioos:station:wmo:42888:1,2021-06-02T13:37:00Z,28.9510,-88.2504,13.1,26.3,11111222
Chevron,ioos:station:wmo:42888:1,2021-06-02T13:47:00Z,28.9510,-88.2503,12.9,26.2,11111222
Chevron,ioos:station:wmo:42888:1,2021-06-02T13:57:00Z,28.9511,-88.2503,12.8,26.3,11111222
Chevron,ioos:station:wmo:42888:1,2021-06-02T14:07:00Z,28.9511,-88.2503,12.8,26.2,11111222
Chevron,ioos:station:wmo:42888:1,2021-06-02T14:17:00Z,28.9510,-88.2503,13.2,26.3,11111222
Chevron,ioos:station:wmo:42888:1,2021-06-02T14:27:00Z,28.9510,-88.2503,13.0,26.3,11111222
Chevron,ioos:station:wmo:42888:1,2021-06-02T14:37:00Z,28.9511,-88.2503,12.8,26.3,11111222
Chevron,ioos:station:wmo:42888:1,2021-06-02T14:47:00Z,28.9510,-88.2504,13.0,26.3,11111222
Chevron,ioos:station:wmo:42888:1,2021-06-02T14:57:00Z,28.9511,-88.2503,13.4,26.3,11111222
Chevron,ioos:station:wmo:42888:1,2021-06-02T15:07:00Z,28.9510,-88.2503,13.1,26.3,11111222
Chevron,ioos:station:wmo:42888:1,2021-06-02T15:17:00Z,28.9510,-88.2504,13.0,26.3,11111222
Chevron,ioos:station:wmo:42888:1,2021-06-02T15:27:00Z,28.9511,-88.2503,13.1,26.3,11111222
Chevron,ioos:station:wmo:42888:1,2021-06-02T15:37:00Z,28.9510,-88.2503,13.2,26.3,11111222
Chevron,ioos:station:wmo:42888:1,2021-06-02T15:47:00Z,28.9511,-88.2503,13.0,26.3,11111222
Chevron,ioos:station:wmo:42888:1,2021-06-02T15:57:00Z,28.9510,-88.2503,12.9,26.3,11111222
Chevron,ioos:station:wmo:42888:1,2021-06-02T16:07:00Z,28.9510,-88.2503,12.9,26.3,11111222
Chevron,ioos:station:wmo:42888:1,2021-06-02T16:17:00Z,28.9510,-88.2503,13.1,26.4,11111222
Chevron,ioos:station:wmo:42888:1,2021-06-02T16:27:00Z,28.9510,-88.2503,12.7,26.4,11111222
Chevron,ioos:station:wmo:42888:1,2021-06-02T16:37:00Z,28.9511,-88.2504,12.9,26.4,11111222
Chevron,ioos:station:wmo:42888:1,2021-06-02T16:47:00Z,28.9511,-88.2503,13.0,26.3,11111222
Chevron,ioos:station:wmo:42888:1,2021-06-02T16:57:00Z,28.9510,-88.2503,13.4,26.4,11111222
Chevron,ioos:station:wmo:42888:1,2021-06-02T17:07:00Z,28.9511,-88.2503,13.1,26.4,11111222
Chevron,ioos:station:wmo:42888:1,2021-06-02T17:17:00Z,28.9511,-88.2503,13.1,26.4,11111222
Chevron,ioos:station:wmo:42888:1,2021-06-02T17:27:00Z,28.9510,-88.2503,12.9,26.3,11111222
Chevron,ioos:station:wmo:42888:1,2021-06-02T17:37:00Z,28.9511,-88.2503,13.3,26.4,11111222
Chevron,ioos:station:wmo:42888:1,2021-06-02T17:47:00Z,28.9511,-88.2504,13.2,26.4,11111222
Chevron,ioos:station:wmo:42888:1,2021-06-02T17:57:00Z,28.9511,-88.2504,13.0,26.4,11111222
Chevron,ioos:station:wmo:42888:1,2021-06-02T18:07:00Z,28.9510,-88.2503,12.9,26.4,11111222
Chevron,ioos:station:wmo:42888:1,2021-06-02T18:17:00Z,28.9510,-88.2504,13.0,26.4,11111222
Chevron,ioos:station:wmo:42888:1,2021-06-02T18:27:00Z,28.9510,-88.2503,13.1,26.4,11111222
Chevron,ioos:station:wmo:42888:1,2021-06-02T18:37:00Z,28.9510,-88.2503,13.1,26.3,11111222
Chevron,ioos:station:wmo:42888:1,2021-06-02T18:47:00Z,28.9511,-88.2503,12.9,26.4,11111222
Chevron,ioos:station:wmo:42888:1,2021-06-02T18:57:00Z,28.9511,-88.2503,13.1,26.4,11111222
Chevron,ioos:station:wmo:42888:1,2021-06-02T19:07:00Z,28.9511,-88.2504,13.0,26.4,11111222
Chevron,ioos:station:wmo:42888:1,2021-06-02T19:17:00Z,28.9511,-88.2503,13.1,26.4,11111222
Chevron,ioos:station:wmo:42888:1,2021-06-02T19:27:00Z,28.9511,-88.2503,13.0,26.3,11111222
Chevron,ioos:station:wmo:42888:1,2021-06-02T19:37:00Z,28.9511,-88.2503,13.0,26.4,11111222